TimeCST,TemperatureF,Dew PointF,Humidity,Sea Level PressureIn,VisibilityMPH,Wind Direction,Wind SpeedMPH,Gust SpeedMPH,PrecipitationIn,Events,Conditions,WindDirDegrees,DateUTC
12:53 AM,35.1,28.9,78,30.21,10.0,SSE,6.9,-,N/A,,Clear,150,2011-12-09 06:53:00
1:53 AM,35.6,28.4,75,30.21,10.0,SE,3.5,-,N/A,,Clear,140,2011-12-09 07:53:00
2:53 AM,34.0,28.9,82,30.21,10.0,SSE,5.8,-,N/A,,Clear,150,2011-12-09 08:53:00
3:53 AM,34.0,28.9,82,30.20,10.0,SE,3.5,-,N/A,,Clear,140,2011-12-09 09:53:00
4:53 AM,36.0,28.9,76,30.20,10.0,Calm,Calm,-,N/A,,Clear,0,2011-12-09 10:53:00
5:53 AM,36.0,30.0,79,30.21,10.0,Calm,Calm,-,N/A,,Clear,0,2011-12-09 11:53:00
6:53 AM,35.6,30.2,81,30.23,10.0,Calm,Calm,-,N/A,,Clear,0,2011-12-09 12:53:00
7:53 AM,35.1,30.9,85,30.26,9.0,ENE,3.5,-,N/A,,Clear,70,2011-12-09 13:53:00
8:53 AM,43.0,34.0,71,30.28,10.0,ESE,3.5,-,N/A,,Mostly Cloudy,110,2011-12-09 14:53:00
9:53 AM,48.9,33.1,54,30.30,10.0,ESE,9.2,-,N/A,,Mostly Cloudy,120,2011-12-09 15:53:00
10:11 AM,48.2,33.8,58,30.31,10.0,SE,5.8,-,N/A,,Mostly Cloudy,140,2011-12-09 16:11:00
10:53 AM,51.1,34.0,52,30.31,10.0,ESE,5.8,-,N/A,,Scattered Clouds,120,2011-12-09 16:53:00
11:13 AM,51.8,33.8,50,30.31,10.0,SE,6.9,-,N/A,,Mostly Cloudy,140,2011-12-09 17:13:00
11:53 AM,52.0,35.1,53,30.31,10.0,SE,4.6,-,N/A,,Overcast,130,2011-12-09 17:53:00
12:24 PM,53.6,35.6,51,30.30,10.0,Variable,4.6,-,N/A,,Scattered Clouds,0,2011-12-09 18:24:00
12:35 PM,53.6,35.6,51,30.29,10.0,Calm,Calm,-,N/A,,Mostly Cloudy,0,2011-12-09 18:35:00
12:43 PM,53.6,35.6,51,30.29,10.0,SE,3.5,-,N/A,,Mostly Cloudy,140,2011-12-09 18:43:00
12:53 PM,53.1,36.0,52,30.29,10.0,East,4.6,-,N/A,,Overcast,90,2011-12-09 18:53:00
1:12 PM,55.4,37.4,51,30.28,10.0,Variable,3.5,-,N/A,,Mostly Cloudy,0,2011-12-09 19:12:00
1:22 PM,53.6,37.4,54,30.28,10.0,East,5.8,-,N/A,,Overcast,90,2011-12-09 19:22:00
1:53 PM,55.0,37.0,51,30.28,10.0,East,3.5,-,N/A,,Overcast,100,2011-12-09 19:53:00
2:53 PM,55.0,37.9,53,30.29,10.0,East,4.6,-,N/A,,Overcast,80,2011-12-09 20:53:00
3:53 PM,55.0,37.9,53,30.29,10.0,ENE,5.8,-,N/A,,Overcast,60,2011-12-09 21:53:00
4:53 PM,53.1,39.9,61,30.32,10.0,ENE,9.2,-,N/A,,Mostly Cloudy,60,2011-12-09 22:53:00
5:53 PM,51.1,39.9,66,30.34,10.0,NE,6.9,-,N/A,,Overcast,50,2011-12-09 23:53:00
6:53 PM,50.0,37.9,63,30.36,10.0,NE,6.9,-,N/A,,Overcast,50,2011-12-10 00:53:00
7:53 PM,48.9,37.9,66,30.39,10.0,NE,3.5,-,N/A,,Mostly Cloudy,50,2011-12-10 01:53:00
8:28 PM,48.2,39.2,71,30.40,10.0,North,3.5,-,N/A,,Overcast,360,2011-12-10 02:28:00
8:53 PM,48.9,39.0,69,30.41,10.0,North,5.8,-,N/A,,Overcast,10,2011-12-10 02:53:00
9:35 PM,48.2,39.2,71,30.43,10.0,North,4.6,-,N/A,,Overcast,10,2011-12-10 03:35:00
9:53 PM,48.0,39.0,71,30.43,10.0,NNE,3.5,-,N/A,,Overcast,20,2011-12-10 03:53:00
10:53 PM,46.9,39.0,74,30.44,10.0,Calm,Calm,-,N/A,,Mostly Cloudy,0,2011-12-10 04:53:00
11:53 PM,45.0,39.0,80,30.45,10.0,North,3.5,-,N/A,,Mostly Cloudy,350,2011-12-10 05:53:00